EHI
0 0 0 0 0 0 0 0 0 0 0 0 0 0 0 0 0 0 0 0 0 0 0 0 0 0 0 0 0 0 0 0 0 0 0 0 0 0 0 0 0 0 0
0 0 0 0 0 0 0 0 0 0 0 0 0 0 0 0 0 0 0 0 0 0 0 0 0 0 0 0 0 0 0 0 0 0 0 0 0 0 0 0 0 0 0
0 0 0 0 0 0 0 0 0 0 0 0 0 0 0 0 0 0 0 0 0 0 0 0 0 0 0 0 0 0 0 0 0 0 0 0 0 0 0 0 0 0 0
0 0 0 0 0 0 0 0 0 0 0 0 0 0 0 0 0 0 0 0 0 0 0 0 0 0 0 0 0 0 0 0 0 0 0 0 0 0 0 0 0 0 0
0 0 0 0 0 0 0 0 0 0 0 0 0 0 0 0 0 0 0 0 0 0 0 0 0 0 0 0 0 0 0 0 0 0 0 0 0 0 0 0 0 0 0
0 0 0 0 0 0 0 0 0 0 0 0 0 0 0 0 0 0 0 0 0 0 0 0 0 0 0 0 0 0 0 0 0 0 0 0 0 0 0 0 0 0 0
0 0 0 0 0 0 0 0 0 0 0 0 0 0 0 0 0 0 0 0 0 0 0 0 0 0 0 0 0 0 0 0 0 0 0 0 0 0 0 0 0 0 0
0 0 0 0 0 0 0 0 0 0 0 0 0 0 0 0 0 0 0 0 0 0 0 0 0 0 0 0 0 0 0 0 0 0 0 0 0 0 0 0 0 0 0
0 0 0 0 0 0 0 0 0 0 0 0 0 0 0 0 0 0 0 0 0 0 0 0 0 0 0 0 0 0 0 0 0 0 0 0 0 0 0 0 0 0 0
0 0 0 0 0 0 0 0 0 0 0 0 0 0 0 0 0 0 0 0 0 0 0 0 0 0 0 0 0 0 0 0 0 0 0 0 0 0 0 0 0 0 0
0 0 0 0 0 0 0 0 0 0 0 0 0 0 0 0 0 0 0 0 0 0 0 0 0 0 0 0 0 0 0 0 0 0 0 0 0 0 0 0 0 0 0
0 0 0 0 0 0 0 0 0 0 0 0 0 0 0 0 0 0 0 0 0 0 0 0 0 0 0 0 0 0 0 0 0 0 0 0 0 0 0 0 0 0 0
0 0 0 0 0 0 0 0 0 0 0 0 0 0 0 0 0 0 0 0 0 0 0 0 0 0 0 0 0 0 0 0 0 0 0 0 0 0 0 0 0 0 0
0 0 0 0 0 0 0 0 0 0 0 0 0 0 0 0 0 0 0 0 0 0 0 0 0 0 0 0 0 0 0 0 0 0 0 0 0 0 0 0 0 0 0
0 0 0 0 0 0 0 0 0 0 0 0 0 0 0 0 0 0 0 0 0 0 0 0 0 0 0 0 0 0 0 0 0 0 0 0 0 0 0 0 0 0 0
0 0 0 0 0 0 0 0 0 0 0 0 0 0 0 0 0 0 0 0 0 0 0 0 0 0 0 0 0 0 0 0 0 0 0 0 0 0 0 0 0 0 0
0 0 0 0 0 0 0 0 0 0 0 0 0 0 0 0 0 0 0 0 0 0 0 0 0 0 0 0 0 0 0 0 0 0 0 0 0 0 0 0 0 0 0
0 0 0 0 0 0 0 0 0 0 0 0 0 0 0 0 0 0 0 0 0 0 0 0 0 0 0 0 0 0 0 0 0 0 0 0 0 0 0 0 0 0 0
0 0 0 0 0 0 0 0 0 0 0 0 0 0 0 0 0 0 0 0 0 0 0 0 0 0 0 0 0 0 0 0 0 0 0 0 0 0 0 0 0 0 0
0 0 0 0 0 0 0 0 0 0 0 0 0 0 0 0 0 0 0 0 0 0 0 0 0 0 0 0 0 0 0 0 0 0 0 0 0 0 0 0 0 0 0
0 0 0 0 0 0 0 0 0 0 0 0 0 0 0 0 0 0 0 0 0 0 0 0 0 0 0 0 0 0 0 0 0 0 0 0 0 0 0 0 0 0 0
0 0 0 0 0 0 0 0 0 0 0 0 0 0 0 0 0 0 0 0 0 0 0 0 0 0 0 0 0 0 0 0 0 0 0 0 0 0 0 0 0 0 0
0 0 0 0 0 0 0 0 0 0 0 0 0 0 0 0 0 0 0 0 0 0 0 0 0 0 0 0 0 0 0 0 0 0 0 0 0 0 0 0 0 0 0
0 0 0 0 0 0 0 0 0 0 0 0 0 0 0 0 0 0 0 0 0 0 0 0 0 0 0 0 0 0 0 0 0 0 0 0 0 0 0 0 0 0 0
0 0 0 0 0 0 0 0 0 0 0 0 0 0 0 0 0 0 0 0 0 0 0 0 0 0 0 0 0 0 0 0 0 0 0 0 0 0 0 0 0 0 0
0 0 0 0 0 0 0 0 0 0 0 0 0 0 0 0 0 0 0 0 0 0 0 0 0 0 0 0 0 0 0 0 0 0 0 0 0 0 0 0 0 0 0
Wind_Speed
6 5 4 3 3 3 3 3 4 4 4 4 4 5 5 5 4 4 4 11 12 11 11 10 10 9 9 9 10 10 10 11 11 11 12 12 12 12 13 13 12 12 11
7 6 5 4 3 3 3 4 4 4 3 3 4 4 5 5 4 4 4 7 11 11 10 9 9 10 10 10 10 10 10 10 11 11 11 12 12 12 12 12 12 12 12
8 7 6 5 4 4 5 4 4 3 3 3 4 3 4 4 4 4 4 3 4 7 8 8 9 10 10 11 11 10 10 10 11 11 11 12 12 12 13 13 13 12 12
10 8 6 5 5 5 5 5 4 3 3 3 2 2 2 4 5 4 3 3 3 2 4 6 7 8 9 11 11 11 10 10 10 11 11 12 12 13 13 14 14 14 14
11 8 7 5 6 5 4 4 3 3 2 2 1 1 2 3 4 5 4 4 3 3 2 3 5 5 6 9 10 11 10 10 10 11 11 12 12 13 14 15 15 15 15
11 9 7 7 7 6 4 4 4 3 2 2 2 2 1 1 2 3 4 3 3 3 3 2 2 1 3 6 8 10 10 9 10 10 11 11 13 14 15 16 16 16 16
12 10 9 8 7 6 6 6 4 4 2 1 3 2 3 2 1 1 2 2 2 2 2 2 1 0 2 4 6 9 10 10 10 11 11 12 14 15 17 17 18 17 17
13 11 12 10 8 6 6 5 4 3 2 1 3 3 1 2 2 1 0 1 1 2 2 1 1 2 2 2 5 9 10 10 11 12 13 14 16 17 18 19 19 19 18
13 13 13 11 9 8 7 6 5 6 4 1 1 3 4 4 2 2 2 2 2 2 2 1 2 3 3 3 4 7 9 10 12 14 15 17 18 19 21 21 21 20 20
13 13 13 13 11 8 8 7 5 4 5 3 2 2 2 3 3 1 2 2 1 1 1 2 3 4 4 3 5 9 12 13 14 16 18 19 21 22 22 22 22 22 21
9 12 13 12 11 9 9 7 6 5 4 4 3 2 2 2 2 2 2 3 3 2 2 3 3 3 4 4 4 8 13 15 16 18 20 22 23 24 24 24 23 23 23
7 10 11 11 11 10 10 8 7 7 4 5 3 3 3 3 2 2 2 3 3 3 3 3 2 2 3 4 7 15 16 17 18 21 23 24 25 25 25 25 24 24 24
7 12 11 10 10 10 9 9 8 7 6 6 4 3 3 2 3 3 2 2 2 3 3 2 1 1 2 3 6 18 15 18 20 22 24 25 25 25 25 25 25 25 25
8 10 11 10 10 11 11 9 7 6 5 6 5 4 3 2 2 3 3 2 1 3 3 4 2 0 2 4 10 17 9 19 22 24 25 25 24 24 24 25 25 25 25
8 10 11 11 11 10 10 9 6 6 6 4 5 4 3 2 3 3 3 3 3 2 3 3 3 2 4 4 10 7 6 18 24 24 24 24 24 24 25 25 25 25 25
11 13 12 12 11 10 10 8 7 6 6 4 3 4 3 2 3 3 3 3 3 4 4 4 4 4 6 7 13 8 8 22 22 23 23 23 24 25 25 25 25 25 26
13 13 13 12 12 11 10 8 7 7 6 4 4 4 3 3 3 3 2 2 3 4 6 5 4 4 5 7 9 8 9 8 10 21 23 24 24 25 25 25 26 26 26
13 13 13 12 11 10 9 9 8 6 6 5 4 3 3 3 3 3 3 3 4 4 5 7 4 4 6 7 8 9 10 10 8 19 24 24 25 25 25 25 25 25 26
13 13 12 12 10 9 8 7 7 5 5 4 3 3 3 3 4 3 4 4 4 5 4 5 6 4 5 6 8 9 10 9 10 14 20 22 24 24 25 25 26 26 26
14 12 11 11 10 9 8 7 6 5 5 4 2 1 2 4 4 5 4 5 5 4 4 5 6 6 6 6 6 7 9 6 8 10 15 17 20 23 24 26 26 27 27
13 13 13 11 10 8 7 7 6 5 4 2 1 1 2 4 6 5 5 4 4 4 4 4 6 7 8 7 7 7 11 10 9 9 8 7 9 9 12 19 23 25 27
14 13 12 11 8 6 10 9 6 3 2 1 1 2 3 4 6 9 10 11 11 6 5 4 6 9 10 9 8 9 10 12 10 3 6 9 8 10 9 8 20 27 27
12 12 10 9 8 8 9 7 6 3 2 1 2 2 2 3 6 4 8 12 12 14 15 10 10 10 11 11 11 12 11 12 13 9 10 14 9 11 9 12 25 28 29
10 9 8 7 6 6 7 6 6 3 2 1 1 1 2 4 6 7 6 6 6 7 11 9 9 11 11 11 11 12 12 12 11 9 8 12 12 12 11 9 21 28 28
8 7 6 6 5 5 7 5 5 2 0 1 2 2 4 4 11 14 8 6 7 8 13 18 19 18 21 22 18 9 7 9 13 11 5 7 7 9 10 10 14 22 23
7 6 5 4 5 4 5 4 4 2 1 2 3 3 7 9 13 14 8 7 9 8 8 9 11 13 12 14 18 9 5 9 11 9 3 4 6 7 9 6 6 7 12
Wind_Direction
175 173 170 165 163 146 134 122 113 107 97 83 81 96 110 112 101 85 85 95 94 92 85 75 65 54 45 38 33 28 24 19 15 13 10 8 5 1 356 352 349 347 346
174 171 166 166 161 147 133 125 124 116 97 85 81 97 117 123 113 106 92 96 99 96 87 74 62 51 41 33 27 24 21 18 14 10 7 5 1 357 352 347 343 339 334
171 167 162 160 153 137 124 113 107 95 87 79 78 96 118 133 134 125 116 106 103 102 97 81 65 52 39 27 18 15 15 13 10 6 4 2 358 354 350 345 339 334 329
164 158 158 155 146 133 126 121 116 95 79 80 83 86 114 139 149 150 142 142 138 127 110 99 75 56 39 25 14 5 4 5 4 2 360 357 354 350 345 340 335 330 325
160 156 156 150 142 130 127 126 109 118 105 96 107 110 119 146 160 162 168 176 176 162 151 120 94 68 39 22 12 1 353 355 358 356 352 350 347 344 339 333 328 323 318
160 153 150 147 141 131 128 124 117 96 100 110 86 75 58 136 159 172 182 184 191 183 163 137 104 48 21 10 4 355 346 343 347 346 341 339 338 337 332 326 320 316 311
161 155 152 151 148 146 149 140 121 106 79 82 94 58 18 28 119 181 188 178 190 182 155 152 173 279 315 338 344 339 335 330 330 332 329 327 327 329 326 320 315 311 308
165 161 158 159 155 143 144 147 134 122 98 74 126 118 73 346 335 6 331 167 136 93 90 78 324 292 285 288 292 317 320 318 317 319 319 319 320 321 319 314 310 308 305
168 164 163 159 158 155 161 161 150 141 142 98 94 142 152 200 265 328 9 54 98 95 68 20 350 323 302 285 283 295 298 304 306 308 311 314 315 316 313 310 307 304 302
169 165 163 161 160 157 158 161 153 146 138 142 113 76 119 143 152 270 326 353 25 82 33 350 338 331 327 315 308 305 304 306 304 305 308 310 311 311 309 306 304 302 302
168 165 163 161 160 157 156 150 144 140 136 146 149 137 109 79 102 145 259 311 330 315 327 320 328 343 345 355 343 333 324 316 311 309 308 308 309 307 306 304 303 302 301
163 166 165 162 159 155 154 148 142 139 133 130 130 132 141 144 154 153 202 260 283 291 301 301 331 356 11 16 356 345 335 325 317 311 308 307 306 306 305 304 302 301 298
170 172 164 160 156 151 145 141 138 136 134 134 133 125 124 131 137 143 162 230 274 290 301 303 260 8 41 356 338 333 326 321 315 311 307 305 305 305 304 302 299 297 295
168 162 155 151 148 146 142 138 134 131 130 132 134 133 129 134 135 145 155 159 282 296 286 276 299 243 323 339 322 323 319 316 312 307 304 304 304 303 300 297 295 294 293
146 149 148 145 145 142 139 136 135 130 130 130 137 137 132 136 134 138 143 154 179 259 277 271 287 289 329 311 308 311 305 309 306 304 304 303 301 299 298 297 295 293 293
149 148 147 145 142 137 135 131 130 133 131 134 140 140 141 152 151 153 161 171 176 197 246 252 251 278 297 303 308 311 296 305 305 303 300 301 300 299 297 296 296 296 295
147 149 148 145 142 139 136 136 137 140 138 138 142 156 170 169 171 182 185 192 204 200 246 263 250 274 281 286 298 292 291 286 289 299 301 300 298 298 298 298 297 295 293
144 144 143 140 139 137 137 140 143 143 142 146 151 159 183 185 193 200 206 221 228 222 235 272 275 272 273 281 285 288 296 293 287 296 298 299 299 298 297 296 295 295 295
138 137 137 135 133 131 128 127 126 127 127 132 145 173 202 201 217 222 227 235 240 247 240 267 284 275 276 283 287 286 284 281 285 292 297 297 296 296 296 296 297 298 296
131 128 123 119 119 116 113 111 110 108 105 100 100 166 222 218 225 231 237 242 246 256 261 268 282 290 289 285 281 290 297 281 284 290 288 289 291 294 294 294 294 294 292
115 112 108 105 103 102 104 106 105 105 102 92 62 328 278 254 245 251 251 243 238 245 259 269 285 296 297 299 296 292 297 299 286 276 276 277 282 278 281 285 289 288 286
103 104 105 104 98 101 113 112 112 106 103 83 350 327 306 289 289 302 302 297 291 282 280 276 287 292 294 292 292 294 298 302 300 273 285 290 282 282 278 270 281 285 286
99 100 102 103 101 110 118 120 119 119 94 44 359 339 329 325 333 305 295 298 297 296 296 295 291 286 287 288 289 290 288 289 292 296 297 292 285 282 279 281 287 288 289
100 100 103 110 117 136 142 141 126 106 80 39 8 332 304 301 303 298 276 274 267 275 284 283 270 270 273 274 271 283 291 293 287 280 273 283 288 284 285 278 285 285 286
104 108 119 133 145 160 162 152 138 129 125 295 291 300 310 296 305 309 303 289 283 279 290 290 288 290 293 299 300 298 293 296 296 293 268 268 281 292 287 275 275 281 284
116 123 127 144 157 172 186 178 161 175 246 283 293 297 313 315 309 310 302 290 290 286 282 288 292 295 293 291 295 285 272 284 292 294 254 256 285 306 297 261 253 269 278